TAP209 LPPT-KJFK

Flight info

Callsign TAP209
Flight time 6h 57m
Altitude 36000
Route ELNUB DCT XANEL DCT BANAL/M081F360 DCT 45N020W 47N030W 48N040W 47N050W DCT PORTI/N0472F360 N192A ACADN/N0468F380 N192A TUSKY DCT PLYMM PARCH4
Aircraft A339/H-SADE1E2E3GHIJ3J5M1P2RWXY/LB2D1

Departure

Time 2026-05-09 12:05
Airport Lisbon Humberto Delgado Airport (LPPT)

Arrival

Time 2026-05-09 19:02
Airport John F. Kennedy International Airport (KJFK)
Time Latitude Longitude Altitude Speed Heading
2026-05-09 11:39 38.76886 -9.13586 390 ft 0 kts 255°
2026-05-09 11:48 38.76886 -9.13584 390 ft 1 kts 256°
2026-05-09 11:48 38.76889 -9.13566 390 ft 2 kts 256°
2026-05-09 11:49 38.76893 -9.13548 390 ft 2 kts 256°
2026-05-09 11:49 38.76897 -9.13529 390 ft 2 kts 261°
2026-05-09 11:49 38.76894 -9.13504 390 ft 2 kts 301°
2026-05-09 11:49 38.76888 -9.13493 390 ft 2 kts 317°
2026-05-09 11:50 38.76873 -9.13482 390 ft 0 kts 348°
2026-05-09 11:50 38.76868 -9.13481 390 ft 0 kts 349°
2026-05-09 11:54 38.76873 -9.13482 389 ft 1 kts 349°
2026-05-09 11:55 38.76901 -9.13489 389 ft 6 kts 348°
2026-05-09 11:56 38.77207 -9.13476 389 ft 13 kts 348°
2026-05-09 11:56 38.77330 -9.13509 389 ft 14 kts 348°
2026-05-09 11:56 38.77394 -9.13526 389 ft 14 kts 348°
2026-05-09 11:57 38.77495 -9.13555 389 ft 14 kts 348°
2026-05-09 11:57 38.77598 -9.13582 389 ft 15 kts 348°
2026-05-09 11:57 38.77704 -9.13589 389 ft 15 kts 15°
2026-05-09 11:57 38.77806 -9.13537 389 ft 15 kts 24°
2026-05-09 11:58 38.77909 -9.13480 389 ft 16 kts 23°
2026-05-09 11:58 38.78006 -9.13430 389 ft 12 kts 16°
2026-05-09 11:58 38.78096 -9.13432 389 ft 13 kts 347°
2026-05-09 11:58 38.78223 -9.13471 389 ft 14 kts 347°
2026-05-09 11:59 38.78288 -9.13489 389 ft 14 kts 349°
2026-05-09 11:59 38.78424 -9.13523 389 ft 15 kts 348°
2026-05-09 11:59 38.78493 -9.13543 389 ft 15 kts 348°
2026-05-09 11:59 38.78635 -9.13566 389 ft 15 kts 11°
2026-05-09 12:00 38.78704 -9.13534 389 ft 15 kts 23°
2026-05-09 12:00 38.78807 -9.13479 389 ft 16 kts 22°
2026-05-09 12:00 38.78913 -9.13422 389 ft 16 kts 22°
2026-05-09 12:00 38.79018 -9.13366 389 ft 16 kts 23°
2026-05-09 12:01 38.79125 -9.13308 389 ft 16 kts 23°
2026-05-09 12:01 38.79234 -9.13250 389 ft 16 kts 23°
2026-05-09 12:01 38.79342 -9.13192 389 ft 17 kts 23°
2026-05-09 12:01 38.79451 -9.13133 389 ft 17 kts 23°
2026-05-09 12:02 38.79561 -9.13074 389 ft 17 kts 23°
2026-05-09 12:02 38.79672 -9.13015 389 ft 17 kts 23°
2026-05-09 12:02 38.79755 -9.12963 389 ft 9 kts 46°
2026-05-09 12:02 38.79763 -9.12882 389 ft 6 kts 110°
2026-05-09 12:03 38.79761 -9.12874 389 ft 0 kts 111°
2026-05-09 12:03 38.79755 -9.12857 389 ft 4 kts 111°
2026-05-09 12:03 38.79736 -9.12794 389 ft 8 kts 112°
2026-05-09 12:03 38.79693 -9.12756 389 ft 8 kts 191°
2026-05-09 12:04 38.79591 -9.12808 389 ft 34 kts 202°
2026-05-09 12:04 38.79183 -9.13027 389 ft 92 kts 202°
2026-05-09 12:04 38.78422 -9.13435 390 ft 142 kts 203°
2026-05-09 12:04 38.77036 -9.14173 780 ft 166 kts 202°
2026-05-09 12:05 38.76342 -9.14541 1161 ft 167 kts 201°
2026-05-09 12:05 38.75272 -9.15101 1827 ft 165 kts 201°
2026-05-09 12:05 38.74221 -9.15638 2360 ft 166 kts 201°
2026-05-09 12:05 38.73117 -9.16209 2615 ft 179 kts 202°
2026-05-09 12:06 38.71542 -9.17188 2947 ft 200 kts 224°
2026-05-09 12:06 38.70925 -9.18851 3208 ft 224 kts 263°
2026-05-09 12:06 38.71065 -9.20194 3389 ft 244 kts 287°
2026-05-09 12:06 38.72068 -9.22092 3718 ft 268 kts 306°
2026-05-09 12:07 38.73285 -9.23941 4304 ft 272 kts 305°
2026-05-09 12:07 38.74880 -9.26421 5207 ft 273 kts 304°
2026-05-09 12:07 38.76079 -9.28314 5862 ft 275 kts 303°
2026-05-09 12:07 38.76873 -9.29584 6288 ft 276 kts 303°
2026-05-09 12:08 38.78455 -9.32137 7123 ft 279 kts 303°
2026-05-09 12:08 38.79268 -9.33451 7543 ft 280 kts 303°
2026-05-09 12:08 38.80476 -9.35394 8160 ft 283 kts 303°
2026-05-09 12:08 38.81701 -9.37374 8778 ft 286 kts 303°
2026-05-09 12:09 38.82934 -9.39375 9397 ft 288 kts 303°
2026-05-09 12:09 38.84183 -9.41397 10011 ft 291 kts 302°
2026-05-09 12:09 38.85453 -9.43447 10357 ft 303 kts 302°
2026-05-09 12:10 38.90115 -9.51048 11571 ft 343 kts 303°
2026-05-09 12:10 38.91611 -9.53471 12237 ft 345 kts 303°
2026-05-09 12:10 38.92597 -9.55069 12668 ft 347 kts 303°
2026-05-09 12:11 38.94599 -9.58317 13505 ft 351 kts 303°
2026-05-09 12:11 38.95601 -9.59948 13886 ft 353 kts 303°
2026-05-09 12:11 38.97119 -9.62419 14470 ft 357 kts 303°
2026-05-09 12:11 38.99189 -9.65799 15286 ft 361 kts 302°
2026-05-09 12:12 39.00734 -9.68323 15850 ft 364 kts 302°
2026-05-09 12:12 39.01778 -9.70028 16268 ft 365 kts 302°
2026-05-09 12:12 39.03869 -9.73449 17032 ft 369 kts 302°
2026-05-09 12:12 39.04925 -9.75174 17413 ft 372 kts 302°
2026-05-09 12:13 39.06519 -9.77783 17982 ft 375 kts 303°
2026-05-09 12:13 39.08146 -9.80449 18514 ft 377 kts 303°
2026-05-09 12:13 39.09766 -9.83108 18997 ft 383 kts 303°
2026-05-09 12:13 39.11411 -9.85805 19523 ft 385 kts 303°
2026-05-09 12:14 39.13066 -9.88526 20035 ft 388 kts 303°
2026-05-09 12:14 39.14737 -9.91270 20559 ft 390 kts 303°
2026-05-09 12:14 39.16959 -9.94927 21253 ft 392 kts 303°
2026-05-09 12:14 39.18066 -9.96751 21553 ft 395 kts 303°
2026-05-09 12:15 39.20345 -10.00514 22160 ft 399 kts 303°
2026-05-09 12:15 39.21471 -10.02371 22469 ft 400 kts 303°
2026-05-09 12:15 39.23175 -10.05187 22911 ft 403 kts 303°
2026-05-09 12:15 39.25475 -10.08994 23513 ft 405 kts 303°
2026-05-09 12:16 39.26630 -10.10909 23773 ft 408 kts 303°
2026-05-09 12:16 39.28373 -10.13800 24117 ft 412 kts 303°
2026-05-09 12:16 39.30141 -10.16728 24504 ft 414 kts 303°
2026-05-09 12:16 39.31901 -10.19645 24931 ft 414 kts 303°
2026-05-09 12:17 39.33673 -10.22588 25306 ft 416 kts 303°
2026-05-09 12:17 39.35454 -10.25547 25675 ft 418 kts 303°
2026-05-09 12:17 39.37226 -10.28495 26025 ft 420 kts 303°
2026-05-09 12:17 39.39014 -10.31472 26406 ft 421 kts 303°
2026-05-09 12:18 39.41399 -10.35452 26833 ft 423 kts 303°
2026-05-09 12:18 39.42602 -10.37460 27054 ft 424 kts 302°
2026-05-09 12:18 39.44414 -10.40487 27412 ft 425 kts 303°
2026-05-09 12:18 39.46830 -10.44533 27857 ft 427 kts 303°
2026-05-09 12:19 39.48032 -10.46545 28047 ft 428 kts 303°
2026-05-09 12:19 39.49839 -10.49571 28359 ft 429 kts 303°
2026-05-09 12:19 39.52283 -10.53670 28734 ft 431 kts 302°
2026-05-09 12:19 39.54105 -10.56732 29064 ft 432 kts 302°
2026-05-09 12:20 39.55314 -10.58763 29272 ft 432 kts 303°
2026-05-09 12:20 39.57161 -10.61875 29567 ft 434 kts 303°
2026-05-09 12:20 39.58995 -10.64961 29808 ft 436 kts 303°
2026-05-09 12:20 39.60851 -10.68090 30099 ft 437 kts 302°
2026-05-09 12:21 39.62683 -10.71178 30373 ft 437 kts 302°
2026-05-09 12:21 39.64543 -10.74325 30587 ft 439 kts 302°
2026-05-09 12:21 39.66385 -10.77439 30764 ft 441 kts 302°
2026-05-09 12:21 39.68262 -10.80616 30982 ft 443 kts 302°
2026-05-09 12:22 39.70139 -10.83794 31191 ft 445 kts 302°
2026-05-09 12:22 39.72001 -10.86954 31379 ft 447 kts 303°
2026-05-09 12:22 39.73906 -10.90191 31548 ft 450 kts 303°
2026-05-09 12:22 39.75814 -10.93434 31704 ft 452 kts 303°
2026-05-09 12:23 39.77725 -10.96679 31899 ft 454 kts 303°
2026-05-09 12:23 39.79620 -10.99904 32139 ft 454 kts 303°
2026-05-09 12:23 39.82165 -11.04239 32492 ft 453 kts 303°
2026-05-09 12:23 39.83431 -11.06398 32660 ft 452 kts 303°
2026-05-09 12:24 39.85324 -11.09627 32918 ft 451 kts 303°
2026-05-09 12:24 39.87219 -11.12865 33164 ft 450 kts 303°
2026-05-09 12:24 39.89110 -11.16099 33388 ft 450 kts 303°
2026-05-09 12:24 39.90997 -11.19331 33644 ft 449 kts 303°
2026-05-09 12:25 39.92878 -11.22559 33879 ft 449 kts 303°
2026-05-09 12:25 39.95385 -11.26870 34108 ft 451 kts 303°
2026-05-09 12:25 39.96657 -11.29058 34216 ft 452 kts 303°
2026-05-09 12:25 39.99166 -11.33376 34434 ft 453 kts 303°
2026-05-09 12:26 40.00447 -11.35581 34553 ft 454 kts 303°
2026-05-09 12:26 40.02962 -11.39917 34789 ft 455 kts 304°
2026-05-09 12:26 40.04249 -11.42138 34903 ft 455 kts 304°
2026-05-09 12:26 40.06793 -11.46535 35133 ft 456 kts 304°
2026-05-09 12:27 40.08062 -11.48729 35241 ft 457 kts 304°
2026-05-09 12:27 40.09975 -11.52039 35395 ft 458 kts 304°
2026-05-09 12:27 40.11872 -11.55326 35525 ft 459 kts 304°
2026-05-09 12:28 40.15725 -11.62012 35603 ft 462 kts 304°
2026-05-09 12:28 40.20215 -11.69818 35603 ft 462 kts 303°
2026-05-09 12:29 40.24067 -11.76536 35606 ft 462 kts 303°
2026-05-09 12:29 40.27266 -11.82123 35610 ft 463 kts 304°
2026-05-09 12:30 40.31111 -11.88856 35607 ft 464 kts 303°
2026-05-09 12:30 40.36889 -11.98997 35604 ft 464 kts 304°
2026-05-09 12:31 40.42654 -12.09149 35607 ft 465 kts 304°
2026-05-09 12:32 40.47146 -12.17082 35599 ft 466 kts 304°
2026-05-09 12:32 40.50371 -12.22787 35597 ft 466 kts 304°
2026-05-09 12:33 40.54856 -12.30746 35596 ft 466 kts 304°
2026-05-09 12:33 40.58051 -12.36426 35599 ft 467 kts 304°
2026-05-09 12:34 40.62535 -12.44414 35600 ft 466 kts 304°
2026-05-09 12:34 40.66389 -12.51296 35598 ft 467 kts 304°
2026-05-09 12:35 40.70224 -12.58161 35596 ft 468 kts 304°
2026-05-09 12:35 40.74077 -12.65073 35602 ft 468 kts 304°
2026-05-09 12:36 40.77278 -12.70828 35597 ft 468 kts 304°
2026-05-09 12:36 40.81735 -12.78855 35593 ft 467 kts 304°
2026-05-09 12:37 40.84924 -12.84613 35597 ft 468 kts 304°
2026-05-09 12:37 40.88766 -12.91564 35600 ft 468 kts 304°
2026-05-09 12:38 40.92607 -12.98528 35588 ft 468 kts 304°
2026-05-09 12:38 40.96418 -13.05452 35586 ft 469 kts 304°
2026-05-09 12:39 41.00254 -13.12440 35588 ft 469 kts 304°
2026-05-09 12:39 41.04711 -13.20582 35590 ft 470 kts 304°
2026-05-09 12:40 41.07894 -13.26403 35594 ft 469 kts 304°
2026-05-09 12:40 41.11695 -13.33374 35600 ft 469 kts 304°
2026-05-09 12:41 41.15511 -13.40386 35595 ft 470 kts 304°
2026-05-09 12:41 41.19308 -13.47382 35601 ft 470 kts 305°
2026-05-09 12:42 41.23134 -13.54448 35599 ft 471 kts 305°
2026-05-09 12:42 41.26950 -13.61509 35600 ft 471 kts 305°
2026-05-09 12:43 41.31369 -13.69709 35597 ft 471 kts 304°
2026-05-09 12:43 41.35184 -13.76805 35598 ft 472 kts 304°
2026-05-09 12:44 41.38367 -13.82736 35594 ft 472 kts 304°
2026-05-09 12:44 41.42151 -13.89805 35596 ft 473 kts 304°
2026-05-09 12:45 41.45960 -13.96935 35588 ft 473 kts 304°
2026-05-09 12:45 41.49747 -14.04043 35595 ft 473 kts 304°
2026-05-09 12:46 41.53559 -14.11214 35604 ft 474 kts 304°
2026-05-09 12:46 41.57344 -14.18353 35600 ft 474 kts 304°
2026-05-09 12:47 41.61149 -14.25542 35607 ft 475 kts 305°
2026-05-09 12:47 41.65562 -14.33904 35599 ft 475 kts 305°
2026-05-09 12:48 41.69352 -14.41106 35600 ft 475 kts 305°
2026-05-09 12:48 41.72536 -14.47165 35599 ft 475 kts 305°
2026-05-09 12:49 41.76311 -14.54369 35596 ft 475 kts 305°
2026-05-09 12:49 41.80711 -14.62786 35598 ft 475 kts 305°
2026-05-09 12:50 41.84499 -14.70049 35602 ft 475 kts 305°
2026-05-09 12:50 41.88247 -14.77255 35602 ft 475 kts 304°
2026-05-09 12:51 41.92020 -14.84530 35602 ft 475 kts 305°
2026-05-09 12:51 41.95155 -14.90592 35613 ft 475 kts 305°
2026-05-09 12:52 41.98927 -14.97848 35617 ft 475 kts 307°
2026-05-09 12:52 42.03779 -15.05808 35633 ft 474 kts 311°
2026-05-09 12:53 42.07394 -15.11345 35619 ft 474 kts 312°
2026-05-09 12:53 42.11739 -15.18008 35632 ft 474 kts 312°
2026-05-09 12:54 42.16062 -15.24668 35634 ft 474 kts 312°
2026-05-09 12:54 42.21096 -15.32448 35632 ft 474 kts 312°
2026-05-09 12:55 42.25432 -15.39174 35633 ft 474 kts 312°
2026-05-09 12:55 42.29741 -15.45867 35630 ft 474 kts 312°
2026-05-09 12:56 42.33332 -15.51459 35626 ft 473 kts 312°
2026-05-09 12:56 42.37618 -15.58146 35636 ft 473 kts 312°
2026-05-09 12:57 42.41910 -15.64862 35636 ft 473 kts 312°
2026-05-09 12:57 42.46208 -15.71599 35642 ft 476 kts 311°
2026-05-09 12:58 42.51231 -15.79496 35643 ft 476 kts 311°
2026-05-09 12:58 42.55537 -15.86280 35649 ft 475 kts 312°
2026-05-09 12:59 42.59093 -15.91894 35649 ft 474 kts 312°
2026-05-09 12:59 42.63377 -15.98671 35653 ft 474 kts 312°
2026-05-09 13:00 42.67677 -16.05490 35674 ft 475 kts 312°
2026-05-09 13:00 42.71973 -16.12317 35659 ft 475 kts 312°
2026-05-09 13:01 42.76957 -16.20259 35675 ft 475 kts 312°
2026-05-09 13:01 42.81228 -16.27082 35674 ft 476 kts 312°
2026-05-09 13:02 42.85494 -16.33915 35678 ft 476 kts 312°
2026-05-09 13:02 42.89771 -16.40779 35690 ft 476 kts 312°
2026-05-09 13:03 42.93336 -16.46511 35690 ft 477 kts 312°
2026-05-09 13:03 42.98311 -16.54534 35706 ft 477 kts 312°
2026-05-09 13:04 43.01875 -16.60295 35690 ft 477 kts 312°
2026-05-09 13:04 43.06854 -16.68360 35716 ft 477 kts 312°
2026-05-09 13:05 43.11109 -16.75270 35709 ft 477 kts 312°
2026-05-09 13:05 43.14650 -16.81033 35716 ft 477 kts 312°
2026-05-09 13:06 43.18914 -16.87989 35733 ft 477 kts 312°
2026-05-09 13:06 43.23156 -16.94925 35714 ft 477 kts 312°
2026-05-09 13:07 43.28103 -17.03033 35735 ft 477 kts 312°
2026-05-09 13:07 43.31657 -17.08872 35752 ft 477 kts 312°
2026-05-09 13:08 43.36584 -17.16987 35755 ft 477 kts 312°
2026-05-09 13:08 43.40844 -17.24022 35759 ft 477 kts 312°
2026-05-09 13:09 43.44354 -17.29831 35750 ft 477 kts 312°
2026-05-09 13:09 43.48589 -17.36853 35766 ft 477 kts 312°
2026-05-09 13:10 43.53514 -17.45045 35784 ft 477 kts 312°
2026-05-09 13:10 43.57034 -17.50914 35774 ft 478 kts 312°
2026-05-09 13:11 43.61222 -17.57912 35786 ft 478 kts 312°
2026-05-09 13:11 43.66141 -17.66152 35783 ft 478 kts 311°
2026-05-09 13:12 43.70352 -17.73225 35794 ft 479 kts 311°
2026-05-09 13:12 43.73884 -17.79171 35771 ft 478 kts 311°
2026-05-09 13:13 43.78767 -17.87413 35797 ft 479 kts 311°
2026-05-09 13:13 43.82282 -17.93361 35801 ft 479 kts 311°
2026-05-09 13:14 43.87194 -18.01691 35814 ft 479 kts 311°
2026-05-09 13:16 44.03931 -18.30253 35838 ft 478 kts 311°
2026-05-09 13:16 44.08095 -18.37404 35828 ft 478 kts 311°
2026-05-09 13:17 44.11556 -18.43362 35830 ft 478 kts 311°
2026-05-09 13:17 44.16416 -18.51749 35831 ft 478 kts 311°
2026-05-09 13:18 44.20576 -18.58945 35839 ft 478 kts 311°
2026-05-09 13:18 44.24036 -18.64947 35832 ft 478 kts 311°
2026-05-09 13:19 44.28169 -18.72129 35842 ft 478 kts 310°
2026-05-09 13:19 44.32995 -18.80540 35857 ft 477 kts 310°
2026-05-09 13:20 44.37132 -18.87772 35851 ft 477 kts 310°
2026-05-09 13:20 44.40576 -18.93805 35855 ft 477 kts 310°
2026-05-09 13:21 44.44701 -19.01047 35850 ft 477 kts 310°
2026-05-09 13:21 44.49480 -19.09461 35873 ft 476 kts 310°
2026-05-09 13:22 44.53603 -19.16738 35872 ft 477 kts 310°
2026-05-09 13:22 44.57022 -19.22789 35889 ft 477 kts 310°
2026-05-09 13:23 44.67925 -19.42168 35880 ft 476 kts 310°
2026-05-09 13:24 44.72007 -19.49459 35901 ft 476 kts 310°
2026-05-09 13:24 44.76098 -19.56783 35904 ft 476 kts 310°
2026-05-09 13:25 44.80164 -19.64082 35907 ft 476 kts 310°
2026-05-09 13:26 44.86266 -19.75074 35925 ft 476 kts 310°
2026-05-09 13:26 44.89640 -19.81173 35930 ft 476 kts 310°
2026-05-09 13:27 44.94352 -19.89712 35937 ft 476 kts 309°
2026-05-09 13:27 44.97512 -19.96094 35942 ft 477 kts 304°
2026-05-09 13:28 45.01203 -20.05683 35950 ft 479 kts 296°
2026-05-09 13:28 45.03282 -20.12919 35950 ft 480 kts 292°
2026-05-09 13:29 45.05857 -20.23251 35963 ft 480 kts 291°
2026-05-09 13:29 45.07693 -20.30676 35966 ft 480 kts 291°
2026-05-09 13:30 45.10253 -20.41025 35966 ft 479 kts 291°
2026-05-09 13:30 45.12434 -20.49857 35976 ft 478 kts 291°
2026-05-09 13:31 45.14610 -20.58698 35976 ft 478 kts 291°
2026-05-09 13:31 45.16781 -20.67552 35985 ft 478 kts 291°
2026-05-09 13:32 45.18595 -20.74974 35986 ft 478 kts 291°
2026-05-09 13:32 45.22187 -20.89744 35998 ft 478 kts 291°
2026-05-09 13:33 45.23982 -20.97160 36004 ft 477 kts 291°
2026-05-09 13:33 45.26474 -21.07504 36007 ft 476 kts 291°
2026-05-09 13:34 45.28601 -21.16363 36008 ft 477 kts 291°
2026-05-09 13:34 45.30725 -21.25247 36018 ft 478 kts 291°
2026-05-09 13:35 45.32848 -21.34164 36026 ft 478 kts 291°
2026-05-09 13:35 45.34974 -21.43127 36029 ft 478 kts 291°
2026-05-09 13:36 45.37071 -21.52008 36036 ft 478 kts 291°
2026-05-09 13:36 45.39182 -21.60978 36031 ft 478 kts 291°
2026-05-09 13:37 45.41266 -21.69881 36043 ft 479 kts 291°
2026-05-09 13:37 45.43367 -21.78886 36047 ft 479 kts 291°
2026-05-09 13:38 45.45457 -21.87876 36056 ft 479 kts 291°
2026-05-09 13:38 45.47539 -21.96876 36063 ft 479 kts 291°
2026-05-09 13:39 45.49255 -22.04317 36073 ft 479 kts 291°
2026-05-09 13:39 45.51322 -22.13318 36076 ft 479 kts 291°
2026-05-09 13:40 45.53384 -22.22341 36079 ft 480 kts 291°
2026-05-09 13:40 45.55447 -22.31395 36090 ft 480 kts 291°
2026-05-09 13:41 45.57482 -22.40370 36097 ft 479 kts 291°
2026-05-09 13:41 45.59867 -22.50927 36097 ft 480 kts 291°
2026-05-09 13:42 45.61890 -22.59936 36102 ft 480 kts 291°
2026-05-09 13:42 45.63921 -22.69007 36112 ft 480 kts 291°
2026-05-09 13:43 45.65599 -22.76539 36119 ft 480 kts 291°
2026-05-09 13:43 45.67950 -22.87125 36122 ft 480 kts 291°
2026-05-09 13:44 45.69947 -22.96162 36123 ft 480 kts 291°
2026-05-09 13:44 45.71949 -23.05267 36131 ft 481 kts 291°
2026-05-09 13:45 45.73936 -23.14342 36141 ft 481 kts 291°
2026-05-09 13:45 45.75920 -23.23439 36148 ft 481 kts 291°
2026-05-09 13:46 45.77896 -23.32540 36161 ft 481 kts 291°
2026-05-09 13:46 45.79541 -23.40146 36167 ft 481 kts 292°
2026-05-09 13:47 45.81843 -23.50838 36177 ft 482 kts 292°
2026-05-09 13:47 45.83807 -23.59994 36182 ft 482 kts 292°
2026-05-09 13:48 45.85435 -23.67627 36189 ft 483 kts 291°
2026-05-09 13:48 45.87716 -23.78361 36195 ft 483 kts 291°
2026-05-09 13:49 45.89650 -23.87513 36201 ft 483 kts 291°
2026-05-09 13:49 45.91585 -23.96704 36210 ft 484 kts 292°
2026-05-09 13:50 45.93210 -24.04456 36214 ft 483 kts 292°
2026-05-09 13:50 45.95449 -24.15182 36216 ft 484 kts 292°
2026-05-09 13:51 45.97044 -24.22860 36221 ft 483 kts 292°
2026-05-09 13:51 45.99267 -24.33613 36228 ft 484 kts 292°
2026-05-09 13:52 46.01174 -24.42883 36233 ft 484 kts 292°
2026-05-09 13:52 46.03071 -24.52144 36235 ft 484 kts 292°
2026-05-09 13:53 46.04957 -24.61400 36239 ft 483 kts 292°
2026-05-09 13:53 46.06835 -24.70658 36251 ft 484 kts 292°
2026-05-09 13:54 46.08715 -24.79957 36256 ft 484 kts 292°
2026-05-09 13:54 46.10577 -24.89218 36260 ft 485 kts 292°
2026-05-09 13:55 46.12130 -24.96989 36263 ft 484 kts 292°
2026-05-09 13:55 46.14285 -25.07811 36269 ft 483 kts 292°
2026-05-09 13:56 46.16130 -25.17120 36278 ft 485 kts 292°
2026-05-09 13:56 46.17665 -25.24890 36280 ft 486 kts 292°
2026-05-09 13:57 46.19806 -25.35788 36278 ft 485 kts 292°
2026-05-09 13:57 46.21632 -25.45146 36292 ft 486 kts 293°
2026-05-09 13:58 46.23452 -25.54508 36288 ft 486 kts 293°
2026-05-09 13:58 46.25262 -25.63861 36290 ft 486 kts 293°
2026-05-09 13:59 46.27079 -25.73300 36303 ft 487 kts 292°
2026-05-09 13:59 46.28879 -25.82704 36306 ft 488 kts 293°
2026-05-09 14:00 46.30081 -25.89008 36312 ft 487 kts 293°
2026-05-09 14:00 46.32454 -26.01506 36317 ft 487 kts 293°
2026-05-09 14:01 46.34242 -26.10976 36325 ft 487 kts 293°
2026-05-09 14:01 46.36011 -26.20388 36336 ft 488 kts 293°
2026-05-09 14:02 46.36890 -26.25092 36138 ft 489 kts 293°
2026-05-09 14:02 46.37774 -26.29831 36248 ft 490 kts 293°
2026-05-09 14:02 46.39546 -26.39361 36333 ft 490 kts 294°
2026-05-09 14:03 46.41293 -26.48806 36347 ft 488 kts 293°
2026-05-09 14:03 46.43040 -26.58303 36346 ft 489 kts 293°
2026-05-09 14:04 46.44491 -26.66240 36361 ft 490 kts 293°
2026-05-09 14:04 46.46517 -26.77375 36356 ft 490 kts 293°
2026-05-09 14:05 46.48244 -26.86892 36354 ft 491 kts 293°
2026-05-09 14:05 46.49958 -26.96427 36378 ft 490 kts 294°
2026-05-09 14:06 46.51667 -27.05961 36357 ft 491 kts 293°
2026-05-09 14:06 46.53092 -27.13947 36380 ft 490 kts 294°
2026-05-09 14:07 46.54790 -27.23513 36370 ft 490 kts 294°
2026-05-09 14:07 46.56757 -27.34671 36391 ft 490 kts 294°
2026-05-09 14:08 46.58441 -27.44274 36386 ft 489 kts 294°
2026-05-09 14:08 46.60108 -27.53808 36395 ft 491 kts 294°
2026-05-09 14:09 46.61774 -27.63412 36397 ft 490 kts 294°
2026-05-09 14:09 46.63422 -27.72962 36415 ft 490 kts 294°
2026-05-09 14:10 46.65623 -27.85788 36430 ft 491 kts 294°
2026-05-09 14:11 46.67523 -27.96943 36395 ft 491 kts 294°
2026-05-09 14:11 46.68891 -28.05006 36413 ft 491 kts 294°
2026-05-09 14:12 46.70776 -28.16210 36410 ft 490 kts 294°
2026-05-09 14:12 46.72117 -28.24199 36423 ft 490 kts 295°
2026-05-09 14:13 46.73996 -28.35462 36412 ft 492 kts 294°
2026-05-09 14:15 46.80072 -28.72454 36417 ft 491 kts 294°
2026-05-09 14:15 46.81901 -28.83743 36428 ft 492 kts 294°
2026-05-09 14:16 46.83468 -28.93476 36431 ft 493 kts 294°
2026-05-09 14:16 46.85010 -29.03136 36439 ft 491 kts 295°
2026-05-09 14:17 46.86555 -29.12843 36437 ft 492 kts 294°
2026-05-09 14:17 46.88088 -29.22537 36445 ft 491 kts 294°
2026-05-09 14:18 46.89603 -29.32179 36445 ft 490 kts 294°
2026-05-09 14:18 46.90865 -29.40249 36452 ft 490 kts 295°
2026-05-09 14:19 46.92625 -29.51566 36458 ft 491 kts 294°
2026-05-09 14:19 46.94122 -29.61272 36460 ft 489 kts 295°
2026-05-09 14:20 46.95609 -29.70961 36469 ft 490 kts 294°
2026-05-09 14:20 46.97092 -29.80699 36463 ft 490 kts 294°
2026-05-09 14:21 46.99282 -29.95198 36468 ft 487 kts 294°
2026-05-09 14:21 47.00495 -30.03286 36469 ft 489 kts 294°
2026-05-09 14:22 47.02142 -30.14609 36475 ft 487 kts 293°
2026-05-09 14:22 47.03297 -30.22630 36477 ft 487 kts 293°
2026-05-09 14:23 47.04923 -30.33964 36476 ft 487 kts 293°
2026-05-09 14:23 47.06296 -30.43623 36481 ft 485 kts 293°
2026-05-09 14:24 47.07433 -30.51644 36480 ft 487 kts 293°
2026-05-09 14:24 47.09020 -30.62939 36485 ft 483 kts 293°
2026-05-09 14:25 47.10360 -30.72521 36490 ft 484 kts 292°
2026-05-09 14:25 47.11702 -30.82186 36486 ft 484 kts 292°
2026-05-09 14:26 47.12804 -30.90198 36485 ft 481 kts 292°
2026-05-09 14:26 47.14337 -31.01390 36468 ft 481 kts 292°
2026-05-09 14:27 47.15002 -31.06249 36667 ft 483 kts 292°
2026-05-09 14:27 47.15435 -31.09429 36568 ft 482 kts 292°
2026-05-09 14:27 47.16959 -31.20692 36492 ft 483 kts 292°
2026-05-09 14:28 47.18040 -31.28756 36487 ft 482 kts 292°
2026-05-09 14:28 47.19539 -31.39989 36486 ft 481 kts 292°
2026-05-09 14:29 47.20816 -31.49634 36487 ft 481 kts 291°
2026-05-09 14:29 47.22080 -31.59254 36486 ft 481 kts 291°
2026-05-09 14:30 47.23339 -31.68882 36490 ft 482 kts 291°
2026-05-09 14:30 47.24589 -31.78532 36496 ft 480 kts 291°
2026-05-09 14:31 47.25824 -31.88114 36493 ft 482 kts 291°
2026-05-09 14:31 47.27060 -31.97773 36495 ft 481 kts 290°
2026-05-09 14:32 47.28084 -32.05836 36492 ft 479 kts 290°
2026-05-09 14:32 47.29499 -32.17036 36500 ft 480 kts 290°
2026-05-09 14:33 47.30696 -32.26620 36505 ft 477 kts 290°
2026-05-09 14:33 47.31895 -32.36253 36513 ft 477 kts 290°
2026-05-09 14:34 47.33078 -32.45824 36514 ft 478 kts 290°
2026-05-09 14:34 47.34251 -32.55406 36514 ft 475 kts 290°
2026-05-09 14:35 47.35411 -32.64944 36514 ft 475 kts 290°
2026-05-09 14:35 47.36372 -32.72884 36514 ft 475 kts 289°
2026-05-09 14:36 47.37712 -32.84056 36513 ft 475 kts 289°
2026-05-09 14:36 47.38846 -32.93581 36518 ft 474 kts 289°
2026-05-09 14:37 47.39970 -33.03101 36517 ft 474 kts 289°
2026-05-09 14:37 47.41090 -33.12648 36525 ft 472 kts 289°
2026-05-09 14:38 47.42197 -33.22151 36529 ft 472 kts 289°
2026-05-09 14:38 47.43299 -33.31678 36533 ft 472 kts 289°
2026-05-09 14:39 47.44387 -33.41180 36535 ft 471 kts 288°
2026-05-09 14:39 47.45468 -33.50687 36535 ft 472 kts 288°
2026-05-09 14:40 47.46543 -33.60213 36528 ft 470 kts 288°
2026-05-09 14:40 47.47609 -33.69722 36525 ft 470 kts 288°
2026-05-09 14:41 47.48663 -33.79195 36519 ft 470 kts 287°
2026-05-09 14:41 47.49714 -33.88717 36518 ft 470 kts 287°
2026-05-09 14:42 47.50756 -33.98247 36515 ft 470 kts 287°
2026-05-09 14:42 47.51785 -34.07736 36520 ft 469 kts 287°
2026-05-09 14:43 47.52805 -34.17207 36521 ft 469 kts 287°
2026-05-09 14:43 47.53816 -34.26680 36522 ft 468 kts 287°
2026-05-09 14:44 47.54820 -34.36155 36524 ft 468 kts 287°
2026-05-09 14:44 47.55817 -34.45644 36525 ft 468 kts 287°
2026-05-09 14:45 47.56811 -34.55172 36528 ft 468 kts 287°
2026-05-09 14:45 47.57788 -34.64628 36530 ft 466 kts 287°
2026-05-09 14:46 47.58756 -34.74069 36530 ft 467 kts 285°
2026-05-09 14:46 47.59723 -34.83585 36529 ft 467 kts 285°
2026-05-09 14:47 47.60674 -34.93028 36526 ft 466 kts 285°
2026-05-09 14:47 47.61622 -35.02521 36528 ft 465 kts 285°
2026-05-09 14:48 47.62559 -35.11984 36532 ft 465 kts 285°
2026-05-09 14:48 47.63489 -35.21443 36534 ft 466 kts 285°
2026-05-09 14:49 47.64410 -35.30907 36526 ft 465 kts 285°
2026-05-09 14:49 47.65321 -35.40356 36518 ft 464 kts 285°
2026-05-09 14:50 47.66229 -35.49843 36513 ft 465 kts 285°
2026-05-09 14:50 47.67123 -35.59270 36512 ft 465 kts 284°
2026-05-09 14:51 47.68013 -35.68748 36511 ft 465 kts 284°
2026-05-09 14:51 47.68896 -35.78243 36509 ft 465 kts 284°
2026-05-09 14:52 47.69767 -35.87687 36508 ft 464 kts 283°
2026-05-09 14:52 47.70630 -35.97138 36508 ft 464 kts 283°
2026-05-09 14:53 47.71490 -36.06650 36506 ft 464 kts 283°
2026-05-09 14:53 47.72337 -36.16092 36500 ft 464 kts 283°
2026-05-09 14:54 47.73182 -36.25590 36502 ft 465 kts 283°
2026-05-09 14:54 47.74012 -36.35035 36516 ft 465 kts 283°
2026-05-09 14:55 47.74841 -36.44565 36506 ft 464 kts 283°
2026-05-09 14:55 47.75659 -36.54053 36512 ft 464 kts 283°
2026-05-09 14:56 47.76463 -36.63467 36506 ft 464 kts 283°
2026-05-09 14:56 47.77266 -36.72966 36502 ft 465 kts 282°
2026-05-09 14:57 47.78064 -36.82501 36508 ft 465 kts 282°
2026-05-09 14:57 47.78851 -36.91988 36496 ft 466 kts 282°
2026-05-09 14:58 47.79631 -37.01516 36492 ft 465 kts 282°
2026-05-09 14:58 47.80399 -37.10986 36486 ft 465 kts 282°
2026-05-09 14:59 47.81166 -37.20520 36479 ft 465 kts 281°
2026-05-09 14:59 47.81918 -37.29992 36480 ft 464 kts 281°
2026-05-09 15:00 47.82663 -37.39480 36478 ft 464 kts 281°
2026-05-09 15:00 47.83401 -37.48981 36477 ft 464 kts 281°
2026-05-09 15:01 47.84493 -37.63215 36470 ft 462 kts 281°
2026-05-09 15:02 47.85209 -37.72662 36468 ft 462 kts 280°
2026-05-09 15:02 47.85918 -37.82140 36468 ft 462 kts 279°
2026-05-09 15:03 47.86615 -37.91574 36473 ft 462 kts 279°
2026-05-09 15:03 47.87309 -38.01057 36481 ft 461 kts 279°
2026-05-09 15:04 47.87991 -38.10523 36487 ft 461 kts 279°
2026-05-09 15:06 47.90639 -38.48245 36470 ft 459 kts 279°
2026-05-09 15:06 47.91282 -38.57674 36466 ft 459 kts 278°
2026-05-09 15:07 47.91914 -38.67107 36460 ft 459 kts 278°
2026-05-09 15:07 47.92541 -38.76532 36443 ft 459 kts 277°
2026-05-09 15:08 47.93158 -38.85959 36445 ft 460 kts 277°
2026-05-09 15:08 47.94073 -39.00133 36442 ft 460 kts 277°
2026-05-09 15:10 47.96428 -39.37949 36429 ft 459 kts 276°
2026-05-09 15:11 47.96991 -39.47313 36426 ft 457 kts 276°
2026-05-09 15:11 47.97458 -39.55193 36424 ft 457 kts 276°
2026-05-09 15:12 47.98099 -39.66162 36415 ft 458 kts 276°
2026-05-09 15:12 47.98644 -39.75630 36408 ft 459 kts 275°
2026-05-09 15:13 47.99176 -39.85038 36407 ft 459 kts 275°
2026-05-09 15:13 47.99691 -39.94516 36403 ft 459 kts 274°
2026-05-09 15:14 47.99746 -40.04035 36396 ft 459 kts 268°
2026-05-09 15:14 47.99264 -40.13487 36381 ft 458 kts 266°
2026-05-09 15:15 47.98817 -40.21287 36377 ft 459 kts 265°
2026-05-09 15:15 47.98268 -40.30747 36373 ft 458 kts 265°
2026-05-09 15:16 47.97626 -40.41732 36372 ft 458 kts 265°
2026-05-09 15:16 47.97065 -40.51220 36367 ft 459 kts 265°
2026-05-09 15:17 47.96499 -40.60648 36364 ft 458 kts 265°
2026-05-09 15:17 47.95925 -40.70088 36356 ft 459 kts 264°
2026-05-09 15:18 47.95347 -40.79472 36348 ft 459 kts 264°
2026-05-09 15:18 47.94751 -40.88964 36353 ft 459 kts 264°
2026-05-09 15:19 47.94156 -40.98352 36348 ft 460 kts 264°
2026-05-09 15:19 47.93550 -41.07806 36338 ft 460 kts 264°
2026-05-09 15:20 47.92624 -41.21973 36329 ft 460 kts 264°
2026-05-09 15:21 47.91997 -41.31427 36329 ft 460 kts 264°
2026-05-09 15:21 47.91367 -41.40870 36320 ft 459 kts 263°
2026-05-09 15:22 47.90728 -41.50299 36311 ft 459 kts 263°
2026-05-09 15:22 47.90080 -41.59723 36308 ft 459 kts 263°
2026-05-09 15:23 47.89426 -41.69115 36300 ft 458 kts 262°
2026-05-09 15:23 47.88763 -41.78519 36297 ft 458 kts 262°
2026-05-09 15:24 47.88095 -41.87901 36291 ft 457 kts 262°
2026-05-09 15:24 47.87418 -41.97292 36286 ft 457 kts 262°
2026-05-09 15:25 47.86734 -42.06667 36284 ft 456 kts 262°
2026-05-09 15:25 47.86045 -42.16004 36279 ft 456 kts 262°
2026-05-09 15:26 47.84997 -42.29994 36272 ft 456 kts 262°
2026-05-09 15:26 47.84291 -42.39318 36266 ft 455 kts 261°
2026-05-09 15:27 47.83572 -42.48689 36262 ft 455 kts 261°
2026-05-09 15:27 47.82852 -42.57968 36257 ft 454 kts 261°
2026-05-09 15:28 47.82128 -42.67214 36244 ft 453 kts 260°
2026-05-09 15:28 47.81389 -42.76543 36237 ft 452 kts 260°
2026-05-09 15:29 47.80654 -42.85741 36230 ft 453 kts 260°
2026-05-09 15:29 47.79900 -42.95063 36225 ft 453 kts 260°
2026-05-09 15:30 47.79149 -43.04261 36225 ft 452 kts 259°
2026-05-09 15:30 47.78384 -43.13528 36225 ft 452 kts 259°
2026-05-09 15:31 47.77615 -43.22776 36215 ft 452 kts 259°
2026-05-09 15:31 47.76842 -43.31946 36212 ft 451 kts 259°
2026-05-09 15:32 47.76057 -43.41177 36207 ft 449 kts 259°
2026-05-09 15:32 47.75275 -43.50306 36202 ft 449 kts 259°
2026-05-09 15:33 47.74481 -43.59472 36200 ft 449 kts 259°
2026-05-09 15:33 47.73680 -43.68632 36198 ft 448 kts 258°
2026-05-09 15:34 47.72869 -43.77817 36191 ft 448 kts 258°
2026-05-09 15:34 47.72058 -43.86913 36195 ft 447 kts 258°
2026-05-09 15:35 47.71243 -43.95999 36181 ft 446 kts 258°
2026-05-09 15:35 47.70419 -44.05090 36180 ft 446 kts 258°
2026-05-09 15:36 47.69582 -44.14204 36171 ft 445 kts 257°
2026-05-09 15:36 47.68742 -44.23270 36166 ft 445 kts 257°
2026-05-09 15:37 47.67899 -44.32321 36160 ft 444 kts 257°
2026-05-09 15:37 47.67056 -44.41297 36155 ft 444 kts 257°
2026-05-09 15:38 47.66194 -44.50380 36148 ft 444 kts 257°
2026-05-09 15:38 47.65332 -44.59393 36143 ft 444 kts 257°
2026-05-09 15:39 47.64463 -44.68395 36143 ft 444 kts 256°
2026-05-09 15:39 47.63588 -44.77401 36138 ft 443 kts 256°
2026-05-09 15:40 47.62703 -44.86407 36134 ft 443 kts 256°
2026-05-09 15:40 47.61815 -44.95385 36125 ft 442 kts 256°
2026-05-09 15:41 47.60919 -45.04377 36124 ft 442 kts 256°
2026-05-09 15:41 47.60016 -45.13355 36121 ft 442 kts 255°
2026-05-09 15:42 47.59112 -45.22303 36115 ft 441 kts 255°
2026-05-09 15:42 47.58199 -45.31234 36108 ft 441 kts 255°
2026-05-09 15:43 47.57280 -45.40157 36109 ft 440 kts 255°
2026-05-09 15:43 47.56356 -45.49066 36110 ft 439 kts 255°
2026-05-09 15:44 47.55430 -45.57946 36103 ft 438 kts 255°
2026-05-09 15:44 47.54490 -45.66850 36100 ft 439 kts 253°
2026-05-09 15:45 47.53552 -45.75688 36097 ft 437 kts 253°
2026-05-09 15:45 47.52607 -45.84533 36093 ft 436 kts 253°
2026-05-09 15:46 47.51653 -45.93384 36091 ft 436 kts 253°
2026-05-09 15:46 47.50701 -46.02148 36090 ft 434 kts 253°
2026-05-09 15:47 47.49739 -46.10957 36087 ft 434 kts 253°
2026-05-09 15:47 47.48767 -46.19756 36079 ft 436 kts 253°
2026-05-09 15:48 47.47795 -46.28508 36078 ft 434 kts 253°
2026-05-09 15:48 47.46817 -46.37255 36069 ft 434 kts 252°
2026-05-09 15:49 47.45827 -46.46053 36074 ft 433 kts 253°
2026-05-09 15:49 47.44840 -46.54754 36069 ft 431 kts 252°
2026-05-09 15:50 47.43843 -46.63486 36067 ft 433 kts 252°
2026-05-09 15:50 47.42845 -46.72173 36061 ft 430 kts 252°
2026-05-09 15:51 47.41839 -46.80873 36054 ft 431 kts 251°
2026-05-09 15:51 47.40822 -46.89585 36057 ft 431 kts 251°
2026-05-09 15:52 47.39291 -47.02603 36049 ft 429 kts 251°
2026-05-09 15:53 47.38271 -47.11203 36043 ft 428 kts 251°
2026-05-09 15:53 47.37236 -47.19870 36039 ft 428 kts 251°
2026-05-09 15:54 47.36206 -47.28435 36031 ft 427 kts 251°
2026-05-09 15:54 47.35156 -47.37092 36034 ft 428 kts 251°
2026-05-09 15:55 47.34115 -47.45653 36028 ft 426 kts 250°
2026-05-09 15:55 47.33058 -47.54262 36022 ft 428 kts 250°
2026-05-09 15:56 47.31999 -47.62831 36022 ft 427 kts 250°
2026-05-09 15:56 47.30928 -47.71453 36016 ft 426 kts 250°
2026-05-09 15:57 47.29862 -47.80002 36008 ft 425 kts 249°
2026-05-09 15:57 47.28787 -47.88549 36002 ft 425 kts 249°
2026-05-09 15:58 47.27707 -47.97090 36002 ft 427 kts 249°
2026-05-09 15:58 47.26613 -48.05664 36007 ft 426 kts 249°
2026-05-09 15:59 47.25519 -48.14199 36002 ft 426 kts 249°
2026-05-09 15:59 47.24413 -48.22765 36005 ft 427 kts 249°
2026-05-09 16:00 47.23308 -48.31273 36005 ft 425 kts 249°
2026-05-09 16:00 47.22197 -48.39795 36007 ft 424 kts 248°
2026-05-09 16:01 47.21087 -48.48255 36007 ft 426 kts 248°
2026-05-09 16:01 47.19958 -48.56784 36010 ft 424 kts 248°
2026-05-09 16:02 47.18835 -48.65256 36008 ft 426 kts 247°
2026-05-09 16:02 47.17135 -48.77942 36011 ft 423 kts 247°
2026-05-09 16:03 47.15995 -48.86391 36010 ft 423 kts 246°
2026-05-09 16:03 47.14842 -48.94872 36010 ft 423 kts 246°
2026-05-09 16:04 47.13694 -49.03281 36010 ft 424 kts 246°
2026-05-09 16:04 47.12529 -49.11767 36001 ft 421 kts 246°
2026-05-09 16:05 47.11364 -49.20198 36005 ft 424 kts 246°
2026-05-09 16:05 47.10189 -49.28644 36003 ft 424 kts 246°
2026-05-09 16:06 47.09014 -49.37053 36007 ft 424 kts 246°
2026-05-09 16:06 47.07827 -49.45507 36005 ft 423 kts 246°
2026-05-09 16:07 47.06638 -49.53916 35992 ft 422 kts 246°
2026-05-09 16:07 47.05445 -49.62300 36005 ft 422 kts 246°
2026-05-09 16:08 47.04849 -49.66484 35735 ft 422 kts 245°
2026-05-09 16:08 47.04246 -49.70695 35890 ft 424 kts 245°
2026-05-09 16:08 47.03033 -49.79127 35995 ft 422 kts 245°
2026-05-09 16:09 47.01821 -49.87502 36023 ft 423 kts 245°
2026-05-09 16:09 47.00594 -49.95890 36024 ft 421 kts 244°
2026-05-09 16:10 46.99036 -50.03962 36027 ft 412 kts 239°
2026-05-09 16:10 46.97160 -50.11813 36027 ft 410 kts 239°
2026-05-09 16:11 46.95275 -50.19657 36031 ft 410 kts 238°
2026-05-09 16:11 46.93370 -50.27544 36030 ft 412 kts 239°
2026-05-09 16:12 46.91475 -50.35369 36032 ft 413 kts 239°
2026-05-09 16:12 46.89553 -50.43264 36035 ft 414 kts 239°
2026-05-09 16:13 46.87629 -50.51156 36034 ft 413 kts 239°
2026-05-09 16:13 46.85709 -50.58989 36033 ft 413 kts 239°
2026-05-09 16:14 46.83766 -50.66887 36032 ft 413 kts 238°
2026-05-09 16:14 46.81832 -50.74730 36036 ft 412 kts 238°
2026-05-09 16:15 46.79883 -50.82605 36037 ft 411 kts 238°
2026-05-09 16:15 46.77950 -50.90389 36037 ft 413 kts 238°
2026-05-09 16:16 46.76001 -50.98204 36042 ft 411 kts 238°
2026-05-09 16:16 46.74043 -51.06022 36039 ft 413 kts 238°
2026-05-09 16:17 46.72077 -51.13856 36029 ft 413 kts 238°
2026-05-09 16:17 46.70110 -51.21661 36044 ft 412 kts 238°
2026-05-09 16:18 46.68130 -51.29494 36022 ft 411 kts 238°
2026-05-09 16:18 46.66160 -51.37259 36033 ft 412 kts 239°
2026-05-09 16:19 46.64183 -51.45036 36041 ft 413 kts 238°
2026-05-09 16:19 46.62180 -51.52865 36019 ft 414 kts 239°
2026-05-09 16:20 46.60184 -51.60667 36046 ft 414 kts 239°
2026-05-09 16:20 46.58150 -51.68560 36028 ft 416 kts 239°
2026-05-09 16:21 46.56139 -51.76369 36021 ft 416 kts 238°
2026-05-09 16:21 46.54110 -51.84195 36010 ft 417 kts 239°
2026-05-09 16:22 46.52078 -51.92046 36019 ft 417 kts 240°
2026-05-09 16:22 46.50353 -52.00197 36038 ft 426 kts 246°
2026-05-09 16:23 46.49166 -52.08618 36009 ft 432 kts 251°
2026-05-09 16:23 46.48322 -52.17239 36015 ft 435 kts 251°
2026-05-09 16:24 46.47464 -52.25922 36020 ft 435 kts 252°
2026-05-09 16:24 46.46603 -52.34551 36008 ft 435 kts 252°
2026-05-09 16:25 46.45875 -52.41785 36012 ft 435 kts 253°
2026-05-09 16:25 46.44874 -52.51849 36023 ft 435 kts 253°
2026-05-09 16:26 46.43987 -52.60522 36018 ft 436 kts 253°
2026-05-09 16:26 46.43542 -52.64833 36246 ft 438 kts 253°
2026-05-09 16:26 46.43092 -52.69215 36126 ft 437 kts 253°
2026-05-09 16:27 46.42218 -52.77876 36043 ft 434 kts 252°
2026-05-09 16:27 46.41313 -52.86511 36012 ft 435 kts 252°
2026-05-09 16:28 46.40409 -52.95132 36034 ft 434 kts 252°
2026-05-09 16:28 46.39486 -53.03786 36018 ft 436 kts 253°
2026-05-09 16:29 46.38571 -53.12436 36031 ft 437 kts 253°
2026-05-09 16:29 46.37655 -53.21082 36020 ft 436 kts 253°
2026-05-09 16:30 46.36717 -53.29739 36026 ft 436 kts 253°
2026-05-09 16:30 46.35782 -53.38398 36026 ft 437 kts 253°
2026-05-09 16:31 46.34825 -53.47034 36027 ft 436 kts 253°
2026-05-09 16:31 46.33874 -53.55687 36027 ft 437 kts 254°
2026-05-09 16:32 46.33070 -53.62942 36025 ft 437 kts 254°
2026-05-09 16:32 46.31939 -53.73033 36034 ft 436 kts 253°
2026-05-09 16:33 46.30979 -53.81647 36032 ft 436 kts 253°
2026-05-09 16:33 46.30002 -53.90240 36030 ft 435 kts 253°
2026-05-09 16:34 46.29013 -53.98868 36031 ft 436 kts 254°
2026-05-09 16:34 46.28021 -54.07487 36035 ft 437 kts 254°
2026-05-09 16:35 46.27025 -54.16142 36040 ft 438 kts 254°
2026-05-09 16:35 46.26014 -54.24789 36043 ft 437 kts 254°
2026-05-09 16:36 46.23982 -54.42068 36042 ft 438 kts 254°
2026-05-09 16:37 46.22946 -54.50712 36048 ft 438 kts 255°
2026-05-09 16:37 46.21917 -54.59323 36057 ft 438 kts 255°
2026-05-09 16:38 46.20879 -54.67975 36059 ft 437 kts 255°
2026-05-09 16:38 46.19833 -54.76587 36062 ft 438 kts 255°
2026-05-09 16:39 46.18779 -54.85234 36066 ft 438 kts 255°
2026-05-09 16:39 46.17714 -54.93900 36070 ft 439 kts 255°
2026-05-09 16:40 46.16633 -55.02583 36075 ft 440 kts 255°
2026-05-09 16:42 46.12285 -55.37175 36088 ft 439 kts 255°
2026-05-09 16:42 46.11180 -55.45812 36085 ft 439 kts 255°
2026-05-09 16:43 46.10070 -55.54427 36090 ft 439 kts 255°
2026-05-09 16:43 46.08961 -55.62999 36091 ft 439 kts 256°
2026-05-09 16:44 46.07836 -55.71638 36092 ft 438 kts 255°
2026-05-09 16:44 46.06710 -55.80236 36093 ft 438 kts 255°
2026-05-09 16:45 46.05576 -55.88839 36094 ft 438 kts 255°
2026-05-09 16:45 46.04438 -55.97415 36094 ft 438 kts 255°
2026-05-09 16:46 46.03294 -56.05991 36093 ft 438 kts 256°
2026-05-09 16:46 46.02144 -56.14562 36093 ft 439 kts 256°
2026-05-09 16:47 46.00988 -56.23131 36092 ft 439 kts 256°
2026-05-09 16:47 45.99823 -56.31702 36093 ft 439 kts 256°
2026-05-09 16:48 45.98649 -56.40299 36094 ft 439 kts 256°
2026-05-09 16:48 45.97470 -56.48879 36092 ft 440 kts 256°
2026-05-09 16:49 45.96285 -56.57447 36093 ft 439 kts 256°
2026-05-09 16:50 45.94487 -56.70348 36092 ft 438 kts 255°
2026-05-09 16:50 45.93290 -56.78877 36096 ft 439 kts 255°
2026-05-09 16:51 45.92084 -56.87423 36094 ft 439 kts 256°
2026-05-09 16:51 45.90870 -56.95982 36092 ft 440 kts 256°
2026-05-09 16:52 45.89642 -57.04593 36098 ft 440 kts 256°
2026-05-09 16:52 45.88414 -57.13151 36107 ft 439 kts 256°
2026-05-09 16:53 45.87185 -57.21667 36108 ft 438 kts 256°
2026-05-09 16:53 45.85950 -57.30179 36107 ft 438 kts 256°
2026-05-09 16:54 45.84704 -57.38717 36113 ft 437 kts 256°
2026-05-09 16:54 45.83459 -57.47200 36112 ft 437 kts 256°
2026-05-09 16:55 45.82205 -57.55693 36114 ft 437 kts 256°
2026-05-09 16:55 45.80949 -57.64154 36116 ft 436 kts 256°
2026-05-09 16:56 45.79686 -57.72626 36118 ft 436 kts 256°
2026-05-09 16:56 45.78419 -57.81081 36116 ft 436 kts 256°
2026-05-09 16:57 45.77140 -57.89565 36119 ft 435 kts 256°
2026-05-09 16:57 45.75869 -57.97951 36120 ft 435 kts 256°
2026-05-09 16:58 45.74579 -58.06413 36125 ft 434 kts 256°
2026-05-09 16:58 45.73294 -58.14805 36132 ft 434 kts 256°
2026-05-09 16:59 45.71999 -58.23217 36128 ft 434 kts 256°
2026-05-09 16:59 45.70710 -58.31546 36135 ft 433 kts 256°
2026-05-09 17:00 45.69408 -58.39917 36131 ft 433 kts 256°
2026-05-09 17:00 45.68099 -58.48284 36135 ft 433 kts 256°
2026-05-09 17:01 45.66786 -58.56647 36127 ft 432 kts 256°
2026-05-09 17:01 45.65462 -58.65025 36129 ft 432 kts 256°
2026-05-09 17:02 45.64137 -58.73368 36130 ft 432 kts 256°
2026-05-09 17:02 45.62808 -58.81692 36130 ft 431 kts 256°
2026-05-09 17:03 45.61480 -58.89975 36129 ft 431 kts 256°
2026-05-09 17:05 45.56094 -59.23135 36130 ft 430 kts 256°
2026-05-09 17:05 45.54734 -59.31406 36122 ft 430 kts 256°
2026-05-09 17:06 45.53367 -59.39683 36116 ft 430 kts 256°
2026-05-09 17:06 45.51993 -59.47962 36116 ft 430 kts 256°
2026-05-09 17:07 45.50623 -59.56181 36117 ft 430 kts 256°
2026-05-09 17:07 45.49237 -59.64449 36107 ft 430 kts 256°
2026-05-09 17:08 45.47845 -59.72707 36109 ft 430 kts 255°
2026-05-09 17:08 45.45750 -59.85076 36111 ft 429 kts 255°
2026-05-09 17:09 45.44350 -59.93296 36110 ft 429 kts 255°
2026-05-09 17:09 45.42939 -60.01532 36104 ft 429 kts 255°
2026-05-09 17:10 45.41531 -60.09714 36104 ft 429 kts 256°
2026-05-09 17:10 45.40110 -60.17936 36105 ft 428 kts 255°
2026-05-09 17:11 45.38696 -60.26082 36106 ft 428 kts 256°
2026-05-09 17:11 45.37264 -60.34293 36103 ft 427 kts 256°
2026-05-09 17:12 45.35829 -60.42474 36105 ft 428 kts 256°
2026-05-09 17:12 45.34392 -60.50642 36103 ft 428 kts 256°
2026-05-09 17:13 45.32943 -60.58832 36106 ft 427 kts 256°
2026-05-09 17:13 45.31505 -60.66927 36107 ft 427 kts 255°
2026-05-09 17:14 45.30052 -60.75068 36106 ft 427 kts 255°
2026-05-09 17:14 45.28592 -60.83222 36105 ft 427 kts 255°
2026-05-09 17:15 45.27132 -60.91328 36106 ft 427 kts 255°
2026-05-09 17:15 45.25659 -60.99476 36103 ft 427 kts 255°
2026-05-09 17:17 45.19730 -61.31899 36108 ft 425 kts 256°
2026-05-09 17:18 45.18237 -61.39980 36112 ft 425 kts 256°
2026-05-09 17:18 45.16744 -61.48018 36105 ft 425 kts 256°
2026-05-09 17:19 45.15244 -61.56066 36107 ft 424 kts 256°
2026-05-09 17:19 45.13736 -61.64119 36111 ft 423 kts 256°
2026-05-09 17:20 45.12230 -61.72126 36115 ft 423 kts 255°
2026-05-09 17:20 45.10714 -61.80155 36118 ft 423 kts 255°
2026-05-09 17:21 45.09197 -61.88153 36110 ft 423 kts 255°
2026-05-09 17:21 45.07667 -61.96182 36118 ft 423 kts 255°
2026-05-09 17:22 45.06142 -62.04162 36121 ft 422 kts 255°
2026-05-09 17:22 45.04608 -62.12144 36113 ft 422 kts 256°
2026-05-09 17:23 45.03079 -62.20077 36116 ft 421 kts 256°
2026-05-09 17:23 45.01535 -62.28043 36121 ft 420 kts 256°
2026-05-09 17:25 44.96900 -62.51774 36109 ft 418 kts 256°
2026-05-09 17:25 44.95355 -62.59621 36117 ft 417 kts 256°
2026-05-09 17:26 44.93801 -62.67481 36112 ft 417 kts 255°
2026-05-09 17:26 44.92244 -62.75334 36111 ft 417 kts 255°
2026-05-09 17:27 44.90687 -62.83154 36110 ft 416 kts 255°
2026-05-09 17:27 44.89114 -62.91012 36102 ft 415 kts 255°
2026-05-09 17:28 44.87550 -62.98797 36110 ft 415 kts 256°
2026-05-09 17:28 44.85978 -63.06605 36107 ft 415 kts 256°
2026-05-09 17:29 44.84402 -63.14408 36111 ft 414 kts 256°
2026-05-09 17:29 44.82827 -63.22147 36104 ft 413 kts 256°
2026-05-09 17:30 44.81249 -63.29886 36107 ft 413 kts 256°
2026-05-09 17:30 44.79659 -63.37657 36102 ft 413 kts 256°
2026-05-09 17:31 44.78067 -63.45387 36101 ft 412 kts 256°
2026-05-09 17:32 44.74087 -63.64650 36095 ft 411 kts 256°
2026-05-09 17:33 44.72488 -63.72321 36095 ft 411 kts 256°
2026-05-09 17:33 44.70887 -63.79984 36100 ft 410 kts 255°
2026-05-09 17:34 44.69281 -63.87629 36092 ft 409 kts 256°
2026-05-09 17:35 44.63145 -64.10044 36980 ft 414 kts 247°
2026-05-09 17:35 44.61887 -64.13671 37152 ft 415 kts 248°
2026-05-09 17:36 44.60619 -64.17316 37357 ft 415 kts 247°
2026-05-09 17:36 44.59352 -64.20943 37559 ft 415 kts 247°
2026-05-09 17:36 44.58102 -64.24523 37748 ft 415 kts 246°
2026-05-09 17:36 44.56833 -64.28150 37944 ft 415 kts 246°
2026-05-09 17:37 44.55556 -64.31777 38067 ft 416 kts 247°
2026-05-09 17:37 44.54275 -64.35418 38082 ft 416 kts 247°
2026-05-09 17:37 44.51722 -64.42664 38094 ft 417 kts 246°
2026-05-09 17:38 44.49157 -64.49918 38095 ft 415 kts 246°
2026-05-09 17:39 44.45324 -64.60724 38102 ft 415 kts 246°
2026-05-09 17:39 44.42744 -64.67965 38099 ft 415 kts 246°
2026-05-09 17:40 44.40174 -64.75168 38097 ft 415 kts 246°
2026-05-09 17:40 44.37616 -64.82323 38100 ft 416 kts 246°
2026-05-09 17:41 44.35038 -64.89518 38100 ft 415 kts 246°
2026-05-09 17:41 44.32462 -64.96679 38098 ft 414 kts 246°
2026-05-09 17:42 44.29879 -65.03846 38102 ft 414 kts 246°
2026-05-09 17:42 44.27305 -65.10975 38109 ft 412 kts 246°
2026-05-09 17:43 44.24719 -65.18114 38106 ft 412 kts 246°
2026-05-09 17:43 44.22147 -65.25191 38112 ft 411 kts 246°
2026-05-09 17:44 44.19568 -65.32266 38117 ft 411 kts 246°
2026-05-09 17:44 44.16976 -65.39359 38112 ft 411 kts 246°
2026-05-09 17:45 44.14399 -65.46404 38122 ft 410 kts 246°
2026-05-09 17:45 44.11824 -65.53409 38104 ft 409 kts 246°
2026-05-09 17:46 44.09241 -65.60441 38122 ft 408 kts 246°
2026-05-09 17:46 44.06657 -65.67440 38107 ft 408 kts 245°
2026-05-09 17:47 44.04067 -65.74446 38120 ft 407 kts 245°
2026-05-09 17:47 44.01481 -65.81409 38117 ft 406 kts 245°
2026-05-09 17:48 43.98909 -65.88302 38109 ft 406 kts 246°
2026-05-09 17:48 43.96322 -65.95258 38106 ft 405 kts 246°
2026-05-09 17:49 43.93735 -66.02177 38109 ft 406 kts 246°
2026-05-09 17:49 43.91150 -66.09105 38103 ft 404 kts 245°
2026-05-09 17:50 43.88554 -66.16005 38100 ft 405 kts 246°
2026-05-09 17:50 43.85105 -66.25178 38106 ft 405 kts 246°
2026-05-09 17:51 43.82076 -66.33204 38110 ft 405 kts 246°
2026-05-09 17:51 43.79466 -66.40106 38107 ft 405 kts 246°
2026-05-09 17:52 43.76861 -66.46959 38108 ft 406 kts 246°
2026-05-09 17:52 43.74253 -66.53817 38106 ft 404 kts 245°
2026-05-09 17:53 43.71632 -66.60671 38105 ft 405 kts 246°
2026-05-09 17:53 43.68999 -66.67556 38108 ft 405 kts 245°
2026-05-09 17:54 43.66373 -66.74402 38105 ft 406 kts 245°
2026-05-09 17:54 43.63738 -66.81261 38104 ft 405 kts 245°
2026-05-09 17:55 43.61105 -66.88090 38103 ft 407 kts 245°
2026-05-09 17:55 43.58441 -66.94982 38083 ft 408 kts 245°
2026-05-09 17:56 43.55773 -67.01817 38094 ft 407 kts 243°
2026-05-09 17:57 43.51529 -67.11911 38102 ft 408 kts 244°
2026-05-09 17:57 43.48698 -67.18609 38106 ft 407 kts 244°
2026-05-09 17:58 43.45847 -67.25362 38106 ft 405 kts 243°
2026-05-09 17:58 43.43027 -67.32025 38100 ft 405 kts 243°
2026-05-09 17:59 43.40220 -67.38657 38103 ft 405 kts 244°
2026-05-09 17:59 43.37376 -67.45342 38109 ft 405 kts 244°
2026-05-09 18:00 43.34553 -67.51983 38102 ft 404 kts 243°
2026-05-09 18:00 43.31705 -67.58661 38099 ft 404 kts 244°
2026-05-09 18:01 43.28881 -67.65271 38096 ft 404 kts 243°
2026-05-09 18:01 43.26053 -67.71870 38158 ft 403 kts 243°
2026-05-09 18:02 43.23210 -67.78492 38109 ft 403 kts 243°
2026-05-09 18:02 43.20379 -67.85061 38088 ft 402 kts 243°
2026-05-09 18:03 43.17534 -67.91664 38101 ft 402 kts 243°
2026-05-09 18:03 43.14708 -67.98201 38104 ft 400 kts 243°
2026-05-09 18:04 43.11883 -68.04717 38095 ft 400 kts 243°
2026-05-09 18:04 43.09048 -68.11242 38094 ft 400 kts 243°
2026-05-09 18:05 43.06202 -68.17785 38098 ft 399 kts 243°
2026-05-09 18:05 43.03383 -68.24249 38089 ft 399 kts 243°
2026-05-09 18:06 43.00532 -68.30761 38090 ft 399 kts 243°
2026-05-09 18:06 42.97680 -68.37284 38090 ft 399 kts 243°
2026-05-09 18:07 42.94841 -68.43752 38077 ft 399 kts 243°
2026-05-09 18:07 42.91972 -68.50269 38063 ft 399 kts 243°
2026-05-09 18:08 42.89116 -68.56737 38055 ft 399 kts 243°
2026-05-09 18:08 42.86256 -68.63215 38054 ft 401 kts 243°
2026-05-09 18:09 42.83403 -68.69652 37980 ft 401 kts 242°
2026-05-09 18:09 42.80527 -68.76139 38029 ft 401 kts 242°
2026-05-09 18:10 42.77637 -68.82633 38039 ft 401 kts 242°
2026-05-09 18:10 42.74756 -68.89092 38044 ft 401 kts 242°
2026-05-09 18:11 42.71878 -68.95526 38047 ft 400 kts 242°
2026-05-09 18:11 42.68991 -69.01977 38046 ft 400 kts 242°
2026-05-09 18:12 42.66103 -69.08414 38045 ft 401 kts 242°
2026-05-09 18:12 42.63204 -69.14859 38040 ft 400 kts 242°
2026-05-09 18:13 42.60314 -69.21268 38035 ft 400 kts 242°
2026-05-09 18:13 42.57408 -69.27696 38029 ft 400 kts 242°
2026-05-09 18:14 42.54518 -69.34086 38026 ft 400 kts 242°
2026-05-09 18:14 42.51606 -69.40499 38026 ft 400 kts 242°
2026-05-09 18:15 42.48689 -69.46914 38019 ft 400 kts 242°
2026-05-09 18:15 42.45792 -69.53274 38022 ft 400 kts 242°
2026-05-09 18:16 42.42862 -69.59685 38020 ft 401 kts 242°
2026-05-09 18:16 42.39927 -69.66097 38018 ft 401 kts 241°
2026-05-09 18:17 42.36986 -69.72502 38008 ft 402 kts 241°
2026-05-09 18:17 42.34051 -69.78888 38011 ft 402 kts 241°
2026-05-09 18:18 42.31107 -69.85284 37995 ft 402 kts 241°
2026-05-09 18:18 42.28154 -69.91681 37997 ft 402 kts 241°
2026-05-09 18:19 42.25200 -69.98066 37993 ft 402 kts 241°
2026-05-09 18:19 42.20760 -70.07636 37989 ft 401 kts 241°
2026-05-09 18:20 42.17807 -70.13976 37988 ft 402 kts 241°
2026-05-09 18:20 42.14836 -70.20362 37982 ft 402 kts 241°
2026-05-09 18:21 42.11861 -70.26722 37995 ft 403 kts 241°
2026-05-09 18:21 42.08884 -70.33085 37983 ft 401 kts 241°
2026-05-09 18:22 42.05953 -70.39444 37989 ft 400 kts 243°
2026-05-09 18:22 42.03405 -70.46021 37986 ft 398 kts 247°
2026-05-09 18:23 42.01217 -70.52846 37982 ft 398 kts 249°
2026-05-09 18:23 41.99049 -70.59708 37976 ft 399 kts 249°
2026-05-09 18:24 41.96886 -70.66558 37989 ft 399 kts 248°
2026-05-09 18:25 41.93622 -70.76882 37974 ft 400 kts 249°
2026-05-09 18:25 41.91455 -70.83722 37979 ft 399 kts 248°
2026-05-09 18:26 41.89278 -70.90580 37973 ft 398 kts 248°
2026-05-09 18:26 41.87112 -70.97371 37976 ft 399 kts 249°
2026-05-09 18:27 41.84930 -71.04206 37974 ft 399 kts 249°
2026-05-09 18:27 41.82745 -71.11031 37924 ft 400 kts 249°
2026-05-09 18:27 41.81650 -71.14440 37557 ft 402 kts 249°
2026-05-09 18:28 41.80538 -71.17899 37115 ft 402 kts 249°
2026-05-09 18:28 41.79439 -71.21319 36644 ft 403 kts 249°
2026-05-09 18:28 41.78336 -71.24744 36197 ft 403 kts 248°
2026-05-09 18:28 41.77229 -71.28178 35810 ft 405 kts 248°
2026-05-09 18:29 41.76102 -71.31620 35376 ft 408 kts 246°
2026-05-09 18:29 41.74813 -71.35017 34887 ft 409 kts 243°
2026-05-09 18:29 41.73366 -71.38278 34183 ft 409 kts 240°
2026-05-09 18:29 41.71763 -71.41411 33394 ft 411 kts 237°
2026-05-09 18:30 41.70009 -71.44398 32693 ft 411 kts 233°
2026-05-09 18:30 41.68115 -71.47224 32043 ft 411 kts 230°
2026-05-09 18:30 41.66073 -71.49888 31609 ft 406 kts 226°
2026-05-09 18:30 41.63953 -71.52336 31232 ft 400 kts 224°
2026-05-09 18:31 41.61850 -71.54701 30866 ft 394 kts 224°
2026-05-09 18:31 41.59767 -71.57042 30496 ft 388 kts 224°
2026-05-09 18:31 41.57716 -71.59341 30131 ft 382 kts 224°
2026-05-09 18:31 41.55691 -71.61601 29758 ft 377 kts 224°
2026-05-09 18:32 41.53705 -71.63816 29390 ft 373 kts 224°
2026-05-09 18:32 41.51734 -71.66009 29027 ft 368 kts 224°
2026-05-09 18:32 41.49777 -71.68185 28662 ft 364 kts 223°
2026-05-09 18:32 41.47836 -71.70343 28310 ft 360 kts 224°
2026-05-09 18:33 41.45929 -71.72459 27954 ft 356 kts 223°
2026-05-09 18:33 41.44037 -71.74554 27597 ft 353 kts 223°
2026-05-09 18:33 41.42171 -71.76621 27248 ft 350 kts 223°
2026-05-09 18:33 41.40309 -71.78680 26898 ft 347 kts 223°
2026-05-09 18:34 41.38450 -71.80737 26539 ft 344 kts 223°
2026-05-09 18:34 41.36614 -71.82767 26191 ft 342 kts 223°
2026-05-09 18:34 41.34794 -71.84776 25839 ft 340 kts 223°
2026-05-09 18:34 41.32982 -71.86774 25501 ft 337 kts 223°
2026-05-09 18:35 41.31178 -71.88762 25174 ft 335 kts 223°
2026-05-09 18:35 41.29411 -71.90710 24868 ft 334 kts 223°
2026-05-09 18:35 41.27620 -71.92683 24545 ft 332 kts 223°
2026-05-09 18:35 41.25847 -71.94632 24211 ft 331 kts 223°
2026-05-09 18:36 41.24077 -71.96577 23892 ft 329 kts 223°
2026-05-09 18:36 41.22337 -71.98486 23588 ft 327 kts 223°
2026-05-09 18:36 41.20578 -72.00416 23279 ft 326 kts 223°
2026-05-09 18:36 41.18829 -72.02332 22956 ft 324 kts 223°
2026-05-09 18:37 41.17097 -72.04227 22630 ft 323 kts 223°
2026-05-09 18:37 41.15362 -72.06124 22299 ft 322 kts 223°
2026-05-09 18:37 41.13657 -72.07989 21969 ft 321 kts 223°
2026-05-09 18:37 41.11951 -72.09905 21624 ft 318 kts 227°
2026-05-09 18:38 41.10528 -72.12104 21274 ft 316 kts 236°
2026-05-09 18:38 41.09422 -72.14620 20870 ft 316 kts 245°
2026-05-09 18:38 41.08639 -72.17345 20407 ft 318 kts 251°
2026-05-09 18:40 41.03891 -72.36434 17985 ft 307 kts 251°
2026-05-09 18:40 41.03229 -72.39085 17643 ft 305 kts 251°
2026-05-09 18:40 41.02565 -72.41755 17318 ft 303 kts 251°
2026-05-09 18:41 41.01907 -72.44395 16979 ft 302 kts 251°
2026-05-09 18:41 41.01250 -72.47019 16641 ft 300 kts 251°
2026-05-09 18:41 41.00593 -72.49648 16304 ft 298 kts 251°
2026-05-09 18:41 40.99950 -72.52216 15986 ft 296 kts 251°
2026-05-09 18:42 40.99300 -72.54806 15651 ft 295 kts 251°
2026-05-09 18:42 40.98664 -72.57346 15331 ft 293 kts 250°
2026-05-09 18:42 40.98015 -72.59927 15006 ft 293 kts 251°
2026-05-09 18:42 40.97381 -72.62443 14677 ft 291 kts 250°
2026-05-09 18:43 40.96743 -72.64974 14360 ft 290 kts 250°
2026-05-09 18:43 40.96099 -72.67525 14042 ft 288 kts 250°
2026-05-09 18:43 40.95467 -72.70023 13668 ft 285 kts 250°
2026-05-09 18:43 40.94859 -72.72433 13243 ft 272 kts 249°
2026-05-09 18:44 40.94273 -72.74753 13047 ft 269 kts 249°
2026-05-09 18:44 40.93671 -72.77086 12875 ft 266 kts 246°
2026-05-09 18:44 40.92804 -72.79219 12610 ft 262 kts 235°
2026-05-09 18:44 40.91614 -72.81040 12278 ft 264 kts 224°
2026-05-09 18:45 40.90179 -72.82546 12000 ft 261 kts 219°
2026-05-09 18:45 40.88715 -72.83961 11664 ft 260 kts 218°
2026-05-09 18:45 40.87254 -72.85368 11359 ft 261 kts 218°
2026-05-09 18:45 40.85788 -72.86779 11078 ft 258 kts 218°
2026-05-09 18:46 40.84350 -72.88161 10763 ft 257 kts 218°
2026-05-09 18:46 40.82906 -72.89542 10486 ft 254 kts 218°
2026-05-09 18:46 40.81478 -72.90910 10190 ft 253 kts 218°
2026-05-09 18:46 40.80050 -72.92278 9994 ft 251 kts 217°
2026-05-09 18:47 40.78653 -72.93612 9980 ft 247 kts 218°
2026-05-09 18:47 40.77255 -72.94948 9904 ft 245 kts 217°
2026-05-09 18:47 40.75868 -72.96271 9520 ft 248 kts 217°
2026-05-09 18:47 40.74475 -72.97606 9154 ft 249 kts 217°
2026-05-09 18:48 40.73084 -72.98934 8883 ft 246 kts 217°
2026-05-09 18:48 40.71689 -73.00264 8559 ft 246 kts 217°
2026-05-09 18:48 40.70297 -73.01594 8265 ft 245 kts 217°
2026-05-09 18:48 40.69119 -73.03184 7960 ft 246 kts 239°
2026-05-09 18:49 40.68602 -73.05325 7690 ft 253 kts 261°
2026-05-09 18:49 40.68583 -73.07672 7447 ft 253 kts 265°
2026-05-09 18:49 40.68605 -73.09951 7197 ft 252 kts 265°
2026-05-09 18:49 40.68612 -73.12270 6880 ft 253 kts 265°
2026-05-09 18:50 40.68626 -73.14587 6627 ft 253 kts 264°
2026-05-09 18:50 40.68631 -73.16762 6389 ft 252 kts 265°
2026-05-09 18:50 40.68646 -73.19057 6125 ft 251 kts 265°
2026-05-09 18:50 40.68662 -73.21339 5862 ft 250 kts 266°
2026-05-09 18:51 40.69022 -73.23605 5534 ft 262 kts 291°
2026-05-09 18:51 40.70106 -73.25563 5282 ft 267 kts 304°
2026-05-09 18:51 40.71379 -73.27380 5001 ft 268 kts 307°
2026-05-09 18:51 40.72663 -73.29157 4739 ft 267 kts 307°
2026-05-09 18:52 40.73944 -73.30916 4477 ft 266 kts 307°
2026-05-09 18:52 40.75235 -73.32691 4223 ft 264 kts 307°
2026-05-09 18:52 40.76488 -73.34416 4097 ft 257 kts 308°
2026-05-09 18:52 40.77619 -73.36167 3957 ft 246 kts 300°
2026-05-09 18:53 40.78586 -73.37952 3785 ft 237 kts 298°
2026-05-09 18:53 40.79504 -73.39713 3552 ft 229 kts 298°
2026-05-09 18:53 40.80389 -73.41441 3347 ft 223 kts 297°
2026-05-09 18:53 40.81249 -73.43113 3163 ft 221 kts 297°
2026-05-09 18:54 40.82108 -73.44798 2989 ft 218 kts 297°
2026-05-09 18:54 40.82936 -73.46466 2978 ft 217 kts 292°
2026-05-09 18:54 40.83285 -73.48325 2971 ft 207 kts 265°
2026-05-09 18:54 40.83186 -73.50215 2975 ft 203 kts 259°
2026-05-09 18:55 40.83008 -73.52009 2965 ft 191 kts 258°
2026-05-09 18:55 40.82837 -73.53692 2956 ft 180 kts 258°
2026-05-09 18:55 40.82681 -73.55270 2951 ft 168 kts 257°
2026-05-09 18:55 40.82355 -73.56719 2966 ft 164 kts 242°
2026-05-09 18:56 40.81827 -73.58050 2973 ft 164 kts 239°
2026-05-09 18:56 40.81251 -73.59364 2976 ft 164 kts 238°
2026-05-09 18:56 40.80673 -73.60655 2976 ft 164 kts 238°
2026-05-09 18:56 40.80095 -73.61942 2981 ft 156 kts 238°
2026-05-09 18:57 40.79510 -73.63068 2972 ft 147 kts 228°
2026-05-09 18:57 40.78778 -73.64004 2976 ft 147 kts 221°
2026-05-09 18:57 40.77958 -73.64829 2979 ft 148 kts 217°
2026-05-09 18:57 40.77089 -73.65612 2856 ft 149 kts 214°
2026-05-09 18:58 40.76217 -73.66341 2657 ft 148 kts 213°
2026-05-09 18:58 40.75335 -73.67045 2466 ft 148 kts 213°
2026-05-09 18:58 40.74445 -73.67744 2274 ft 148 kts 213°
2026-05-09 18:58 40.73556 -73.68443 2094 ft 148 kts 212°
2026-05-09 18:59 40.72682 -73.69124 1880 ft 143 kts 212°
2026-05-09 18:59 40.71830 -73.69788 1686 ft 142 kts 212°
2026-05-09 18:59 40.70987 -73.70444 1501 ft 141 kts 212°
2026-05-09 18:59 40.70141 -73.71106 1314 ft 141 kts 212°
2026-05-09 19:00 40.69290 -73.71770 1124 ft 140 kts 212°
2026-05-09 19:00 40.67614 -73.73074 753 ft 140 kts 212°
2026-05-09 19:00 40.66777 -73.73723 569 ft 139 kts 211°
2026-05-09 19:01 40.65941 -73.74377 377 ft 138 kts 212°
2026-05-09 19:01 40.65116 -73.75018 203 ft 135 kts 212°
2026-05-09 19:01 40.64319 -73.75645 34 ft 130 kts 211°
2026-05-09 19:01 40.63636 -73.76181 30 ft 90 kts 210°
2026-05-09 19:02 40.63249 -73.76483 30 ft 39 kts 210°
2026-05-09 19:02 40.63053 -73.76656 30 ft 28 kts 224°
2026-05-09 19:02 40.62949 -73.76844 30 ft 21 kts 240°
2026-05-09 19:02 40.62949 -73.77016 30 ft 19 kts 300°
2026-05-09 19:03 40.63018 -73.77167 30 ft 19 kts 301°
2026-05-09 19:03 40.63088 -73.77320 30 ft 19 kts 300°
2026-05-09 19:03 40.63157 -73.77472 30 ft 19 kts 301°
2026-05-09 19:03 40.63227 -73.77627 30 ft 19 kts 301°
2026-05-09 19:04 40.63297 -73.77782 30 ft 19 kts 300°
2026-05-09 19:04 40.63368 -73.77941 30 ft 20 kts 299°
2026-05-09 19:04 40.63436 -73.78101 30 ft 19 kts 300°
2026-05-09 19:04 40.63506 -73.78252 30 ft 18 kts 301°
2026-05-09 19:05 40.63570 -73.78395 30 ft 17 kts 300°
2026-05-09 19:05 40.63611 -73.78484 30 ft 16 kts 301°
2026-05-09 19:05 40.63687 -73.78652 30 ft 15 kts 300°
2026-05-09 19:05 40.63742 -73.78773 30 ft 15 kts 301°
2026-05-09 19:06 40.63800 -73.78902 30 ft 17 kts 300°
2026-05-09 19:06 40.63863 -73.79040 30 ft 17 kts 300°
2026-05-09 19:06 40.63923 -73.79172 30 ft 15 kts 301°
2026-05-09 19:06 40.63967 -73.79240 30 ft 7 kts 354°
2026-05-09 19:07 40.64015 -73.79210 30 ft 7 kts 41°
2026-05-09 19:07 40.64055 -73.79159 30 ft 8 kts 44°
2026-05-09 19:07 40.64097 -73.79106 30 ft 8 kts 41°
2026-05-09 19:07 40.64133 -73.79101 30 ft 5 kts 325°
2026-05-09 19:08 40.64156 -73.79134 30 ft 3 kts 308°
2026-05-09 19:08 40.64163 -73.79146 30 ft 0 kts 308°